DELTA 1 DEB, 42588

Orbit data source: Space-Track

DELTA 1 DEB, 42588 is space debris in SSO originally from a launch on Tue, 06 Nov 1973 UTC launched from the Air Force Western Test Range (AFWTR). Debris objects in space refer to the collection of defunct objects orbiting the Earth. Examples of debris include non-operational satellites, rocket bodies, and fragments generated from explosions, collisions, or faulty payload assembly.

Loading next visibility...
Identifier
42588, 1973-086JC
Orbit
SSO
Country
Flag of USUS
Related business
Manufacturer
Unknown
Mission
Spacecraft
Bus & Motor
Unknown
Mass
Unknown
Launch date (UTC)
1973-11-06 (52 years ago)
Launch vehicle
Unknown
Launch site
Air Force Western Test Range (AFWTR)
Object type
Payload
Rocket body
Debris
Shape & HBR
Unknown shape, 0.1 m
Radar Cross Section
Small (<0.1 m²)

Expand to show TLE details & history
Last TLE update: 5 days ago

TLE from 5 days ago
0 DELTA 1 DEB
1 42588U 73086JC  26029.75552535  .00000011  00000-0  45403-3 0  9998
2 42588 102.4462  31.2829 0067290 229.4087 306.1536 12.36017444550083
Epoch: 2026-01-29T18:07Z
TLE epoch observation values (Epoch: 2026-01-29T18:07:57.390Z)
Latitude
4.86777°
Longitude
171.36185°
Altitude
1,494.42 km
Speed
7.131 km/s
True Right ascension
14h 09m 25s
True Declination
4° 50' 29"
Sunlit
Object was in daylight at epoch
Visualization orbit readout
Latitude
Unknown
Longitude
Unknown
Altitude
Unknown
Speed
Unknown
Apparent Right ascension
Unknown
Apparent Declination
Unknown
Sunlit
N/A
Visualization observer readout
Local Sidereal Time
21:10:54
Azimuth
Unknown
Elevation
Unknown
Doppler factor
Unknown
Orbital elements
Apogee altitude
1,574.292 km
Perigee altitude
1,467.983 km
Semi-major axis
7,899.275 km
Eccentricity
0.00673
Inclination
102.4462°
RAAN
31.2829°
Arg. of periapsis
229.4087°
True anomaly
305.5279°
Mean anomaly
306.1536°
Eccentric anomaly
305.84106°
Mean motion
3.09145 °/min
Orbital period
116.45 mins
BSTAR
0.00045403
Loading maneuver chart data...
Computing Atmospheric mass density...
Loading historical data...
Loading historical data...
Loading historical data...
Loading historical data...
Loading historical data...
Loading historical data...
Loading historical data...

Documentation

Showing up to 5 results
|